K0JSC-13 Weather Reports


Display with metric or nautical units.
time (UTC)temp
F
wind
direction
speed
MPH
gust
MPH
rain 1hr
in
rain 24hr
in
rain mn
in
humidity
%
barometer
mb
20260905031804 70 328 2.0 4.0 0.00 0.00 0.00 54 987.1
20260905030903 71 330 2.0 4.0 0.00 0.00 0.00 55 987.1
20260905030217 72 319 3.0 7.0 0.00 0.00 0.00 54 987.0
20260905025403 72 303 3.0 7.0 0.00 0.00 0.00 54 987.0
20260905024503 73 322 2.0 4.0 0.00 0.00 0.00 54 986.8
20260905023603 74 325 1.0 3.0 0.00 0.00 0.00 54 986.6
20260905022703 74 328 2.0 6.0 0.00 0.00 0.00 48 986.5
20260905022018 75 340 3.0 6.0 0.00 0.00 0.00 51 986.2
20260905020904 77 351 1.0 5.0 0.00 0.00 0.00 49 986.0
20260905020003 79 204 1.0 3.0 0.00 0.00 0.00 44 985.9
20260905015403 79 188 1.0 3.0 0.00 0.00 0.00 41 985.9
20260905014503 80 85 3.0 5.0 0.00 0.00 0.00 38 985.7
20260905013603 81 80 4.0 7.0 0.00 0.00 0.00 37 985.6
20260905012703 81 79 4.0 8.0 0.00 0.00 0.00 37 985.5
20260905011803 81 72 4.0 7.0 0.00 0.00 0.00 38 985.4
20260905010903 81 61 5.0 10.0 0.00 0.00 0.00 38 985.4
20260905010004 81 44 4.0 10.0 0.00 0.00 0.00 37 985.4
20260905005403 82 51 6.0 13.0 0.00 0.00 0.00 38 985.5
20260905004503 83 30 6.0 14.0 0.00 0.00 0.00 35 985.5
20260905003603 84 3 4.0 9.0 0.00 0.00 0.00 41 985.6
20260905002703 87 138 1.0 4.0 0.00 0.00 0.00 31 985.6
20260905001803 87 131 5.0 10.0 0.00 0.00 0.00 28 985.2
20260905000903 88 122 7.0 13.0 0.00 0.00 0.00 26 984.9
20260905000003 88 105 6.0 10.0 0.00 0.00 0.00 25 984.7
20260904235404 88 115 6.0 11.0 0.00 0.00 0.00 25 984.7
20260904234503 88 134 6.0 10.0 0.00 0.00 0.00 27 984.6
20260904233603 89 143 6.0 10.0 0.00 0.00 0.00 26 984.6
20260904232703 91 134 6.0 11.0 0.00 0.00 0.00 26 984.8
20260904231803 91 135 5.0 10.0 0.00 0.00 0.00 26 984.7
20260904230903 91 137 5.0 10.0 0.00 0.00 0.00 25 984.7
20260904230003 90 146 6.0 12.0 0.00 0.00 0.00 26 984.7
20260904225403 90 142 6.0 12.0 0.00 0.00 0.00 26 984.7
20260904224504 89 161 3.0 6.0 0.00 0.00 0.00 27 984.6
20260904223603 89 158 3.0 8.0 0.00 0.00 0.00 28 984.7
20260904222703 90 153 3.0 7.0 0.00 0.00 0.00 27 984.7
20260904221803 90 146 4.0 8.0 0.00 0.00 0.00 27 984.7
20260904221117 91 147 4.0 8.0 0.00 0.00 0.00 26 984.9
20260904220003 91 143 4.0 9.0 0.00 0.00 0.00 24 984.9
20260904215403 91 149 2.0 5.0 0.00 0.00 0.00 24 984.9
20260904214718 91 138 2.0 5.0 0.00 0.00 0.00 22 984.9
20260904213604 92 126 3.0 7.0 0.00 0.00 0.00 23 984.9
20260904212703 92 136 3.0 7.0 0.00 0.00 0.00 22 985.1
20260904211803 92 135 2.0 4.0 0.00 0.00 0.00 22 985.2
20260904210903 92 125 2.0 5.0 0.00 0.00 0.00 25 985.2
20260904210217 92 134 3.0 7.0 0.00 0.00 0.00 24 985.2
20260904205403 92 136 3.0 6.0 0.00 0.00 0.00 24 985.4
20260904204503 92 140 4.0 7.0 0.00 0.00 0.00 23 985.6
20260904203603 92 115 3.0 6.0 0.00 0.00 0.00 24 985.7
20260904202704 92 95 3.0 7.0 0.00 0.00 0.00 23 985.8
20260904201803 91 152 3.0 7.0 0.00 0.00 0.00 23 985.9
20260904200903 91 210 3.0 8.0 0.00 0.00 0.00 25 986.1
20260904200003 91 199 5.0 11.0 0.00 0.00 0.00 25 986.2
20260904195403 91 187 3.0 7.0 0.00 0.00 0.00 24 986.3
20260904194503 90 131 4.0 9.0 0.00 0.00 0.00 24 986.4
20260904193603 90 90 5.0 10.0 0.00 0.00 0.00 24 986.3
20260904192704 90 85 6.0 12.0 0.00 0.00 0.00 26 986.4
20260904191804 89 90 4.0 8.0 0.00 0.00 0.00 27 986.5
20260904190903 88 59 3.0 8.0 0.00 0.00 0.00 27 986.5
20260904190218 87 336 3.0 8.0 0.00 0.00 0.00 28 986.6
20260904185403 88 319 4.0 9.0 0.00 0.00 0.00 27 986.7
20260904184503 88 303 4.0 9.0 0.00 0.00 0.00 27 986.9
20260904183603 89 312 6.0 12.0 0.00 0.00 0.00 27 986.9
20260904182703 89 304 5.0 12.0 0.00 0.00 0.00 27 987.0
20260904181803 88 297 4.0 10.0 0.00 0.00 0.00 28 987.2
20260904180904 89 308 7.0 16.0 0.00 0.00 0.00 27 987.2
20260904180003 89 318 5.0 12.0 0.00 0.00 0.00 28 987.3
20260904175617 89 326 5.0 12.0 0.00 0.00 0.00 27 987.4
20260904174503 88 307 4.0 12.0 0.00 0.00 0.00 29 987.5
20260904173603 88 299 6.0 12.0 0.00 0.00 0.00 28 987.6
20260904172703 88 303 6.0 11.0 0.00 0.00 0.00 28 987.7
20260904171803 88 297 6.0 13.0 0.00 0.00 0.00 29 987.9
20260904170904 87 305 6.0 13.0 0.00 0.00 0.00 28 987.9
20260904170219 87 312 6.0 13.0 0.00 0.00 0.00 31 987.9
20260904165617 86 307 5.0 13.0 0.00 0.00 0.00 29 987.9
20260904164503 86 311 6.0 14.0 0.00 0.00 0.00 32 988.1
20260904163817 86 311 5.0 11.0 0.00 0.00 0.00 30 988.1
20260904162703 85 306 6.0 12.0 0.00 0.00 0.00 31 988.1
20260904161803 85 302 6.0 12.0 0.00 0.00 0.00 29 988.2
20260904160903 85 301 6.0 14.0 0.00 0.00 0.00 30 988.3
20260904160003 85 308 5.0 12.0 0.00 0.00 0.00 32 988.3
20260904155404 84 305 3.0 10.0 0.00 0.00 0.00 32 988.4
20260904154503 84 294 3.0 8.0 0.00 0.00 0.00 33 988.5
20260904153603 83 320 2.0 4.0 0.00 0.00 0.00 32 988.6
20260904152703 82 308 1.0 3.0 0.00 0.00 0.00 33 988.6
20260904151803 81 289 1.0 4.0 0.00 0.00 0.00 36 988.5
20260904150903 80 289 2.0 4.0 0.00 0.00 0.00 34 988.6
20260904150003 79 293 1.0 3.0 0.00 0.00 0.00 38 988.7
20260904145403 78 296 1.0 4.0 0.00 0.00 0.00 42 988.6
20260904144504 77 309 1.0 4.0 0.00 0.00 0.00 39 988.8
20260904143603 75 323 1.0 3.0 0.00 0.00 0.00 41 988.8
20260904142703 74 323 1.0 3.0 0.00 0.00 0.00 40 988.8
20260904142017 72 323 1.0 3.0 0.00 0.00 0.00 45 988.8
20260904140903 70 323 0.0 3.0 0.00 0.00 0.00 45 988.8
20260904140003 69 323 1.0 3.0 0.00 0.00 0.00 48 988.8
20260904135403 67 323 0.0 2.0 0.00 0.00 0.00 49 988.6
20260904134503 64 323 1.0 2.0 0.00 0.00 0.00 52 988.5
20260904133604 63 323 1.0 3.0 0.00 0.00 0.00 54 988.5
20260904132703 61 323 2.0 3.0 0.00 0.00 0.00 54 988.4
20260904131803 60 323 2.0 4.0 0.00 0.00 0.00 55 988.3
20260904130903 60 321 2.0 4.0 0.00 0.00 0.00 56 988.1
20260904130003 60 321 1.0 3.0 0.00 0.00 0.00 54 987.9
20260904125403 60 321 2.0 4.0 0.00 0.00 0.00 52 987.9
20260904124716 59 322 3.0 5.0 0.00 0.00 0.00 53 987.7
20260904123604 59 323 1.0 2.0 0.00 0.00 0.00 54 987.6
20260904122704 60 323 0.0 2.0 0.00 0.00 0.00 53 987.4
20260904121803 61 323 0.0 2.0 0.00 0.00 0.00 50 987.4
20260904120903 61 323 1.0 2.0 0.00 0.00 0.00 50 987.3
20260904120217 62 323 1.0 3.0 0.00 0.00 0.00 48 987.2
20260904115403 62 323 1.0 3.0 0.00 0.00 0.00 46 987.2
20260904114503 62 320 2.0 5.0 0.00 0.00 0.00 47 987.1
20260904113603 62 315 3.0 5.0 0.00 0.00 0.00 47 986.9
20260904112703 62 277 3.0 7.0 0.00 0.00 0.00 46 986.9
20260904111804 63 291 3.0 7.0 0.00 0.00 0.00 45 987.0
20260904110903 62 302 2.0 4.0 0.00 0.00 0.00 45 986.9
20260904110003 62 302 1.0 3.0 0.00 0.00 0.00 44 986.9
20260904105403 62 302 1.0 4.0 0.00 0.00 0.00 46 986.9
20260904104504 62 300 2.0 7.0 0.00 0.00 0.00 44 986.7
20260904103603 63 318 2.0 7.0 0.00 0.00 0.00 43 986.6
20260904102703 64 323 2.0 4.0 0.00 0.00 0.00 42 986.6
20260904101803 64 323 2.0 4.0 0.00 0.00 0.00 40 986.5
20260904100904 65 325 2.0 5.0 0.00 0.00 0.00 38 986.5
20260904100218 66 318 2.0 6.0 0.00 0.00 0.00 37 986.4
20260904095403 67 309 2.0 7.0 0.00 0.00 0.00 36 986.2
20260904094717 68 308 3.0 9.0 0.00 0.00 0.00 35 986.1
20260904093603 69 316 5.0 8.0 0.00 0.00 0.00 34 986.1
20260904092703 70 328 5.0 9.0 0.00 0.00 0.00 32 986.2
20260904091803 70 327 5.0 12.0 0.00 0.00 0.00 32 986.1
20260904091117 70 330 6.0 12.0 0.00 0.00 0.00 32 986.0
20260904090004 70 322 5.0 10.0 0.00 0.00 0.00 33 985.9
20260904085403 70 320 8.0 15.0 0.00 0.00 0.00 32 985.9
20260904084503 70 315 9.0 14.0 0.00 0.00 0.00 33 985.9
20260904083603 70 319 8.0 13.0 0.00 0.00 0.00 33 986.0
20260904082703 69 325 6.0 13.0 0.00 0.00 0.00 34 986.1
20260904081803 68 323 5.0 10.0 0.00 0.00 0.00 35 986.0
20260904080903 68 330 5.0 9.0 0.00 0.00 0.00 35 985.9
20260904080003 68 323 4.0 8.0 0.00 0.00 0.00 36 985.9
20260904075404 68 328 4.0 8.0 0.00 0.00 0.00 36 985.9
20260904074503 69 327 4.0 8.0 0.00 0.00 0.00 36 985.8
20260904073603 68 327 6.0 10.0 0.00 0.00 0.00 35 986.0
20260904072703 68 327 4.0 10.0 0.00 0.00 0.00 36 986.0
20260904071803 69 323 3.0 5.0 0.00 0.00 0.00 35 986.0
20260904070903 70 312 1.0 5.0 0.00 0.00 0.00 35 986.0
20260904070003 70 10 1.0 5.0 0.00 0.00 0.00 33 985.8
20260904065403 71 350 3.0 8.0 0.00 0.00 0.00 33 985.8
20260904064504 72 328 4.0 9.0 0.00 0.00 0.00 32 985.7
20260904063603 72 331 5.0 11.0 0.00 0.00 0.00 31 985.6
20260904062703 72 333 6.0 10.0 0.00 0.00 0.00 31 985.5
20260904061803 72 332 6.0 12.0 0.00 0.00 0.00 32 985.4
20260904061117 72 323 6.0 11.0 0.00 0.00 0.00 32 985.3
20260904060006 72 337 6.0 13.0 0.00 0.00 0.00 32 985.4
20260904055403 73 338 6.0 13.0 0.00 0.00 0.00 31 985.3
20260904054503 74 341 5.0 10.0 0.00 0.00 0.00 30 985.1
20260904053604 74 328 6.0 12.0 0.00 0.00 0.00 28 985.2
20260904052703 73 324 7.0 12.0 0.00 0.00 0.00 31 985.0
20260904051803 71 317 3.0 10.0 0.00 0.00 0.00 33 984.9
20260904050903 72 331 3.0 8.0 0.00 0.00 0.00 32 985.1
20260904050003 71 336 5.0 12.0 0.00 0.00 0.00 31 985.1
20260904045403 71 332 6.0 12.0 0.00 0.00 0.00 32 985.0
20260904044503 70 321 4.0 11.0 0.00 0.00 0.00 33 985.0
20260904043603 70 330 2.0 6.0 0.00 0.00 0.00 37 984.9
20260904042704 70 325 5.0 9.0 0.00 0.00 0.00 37 985.0
20260904041803 69 30 1.0 4.0 0.00 0.00 0.00 40 985.0
20260904040903 69 19 1.0 5.0 0.00 0.00 0.00 38 984.9
20260904040003 70 328 2.0 5.0 0.00 0.00 0.00 37 984.9
20260904035618 70 321 1.0 5.0 0.00 0.00 0.00 40 984.9
20260904034503 70 331 2.0 5.0 0.00 0.00 0.00 40 984.8
20260904033603 71 303 2.0 5.0 0.00 0.00 0.00 41 984.7
20260904032703 71 308 3.0 8.0 0.00 0.00 0.00 40 984.6